TimeCST,TemperatureF,Dew PointF,Humidity,Sea Level PressureIn,VisibilityMPH,Wind Direction,Wind SpeedMPH,Gust SpeedMPH,PrecipitationIn,Events,Conditions,WindDirDegrees,DateUTC
12:15 AM,18.7,2.3,49,29.95,10.0,SW,3.5,-,N/A,,Clear,220,2012-12-11 06:15:00
12:35 AM,17.2,2.5,52,29.95,10.0,Calm,Calm,-,N/A,,Clear,0,2012-12-11 06:35:00
12:55 AM,19.0,2.3,48,29.94,10.0,Calm,Calm,-,N/A,,Clear,0,2012-12-11 06:55:00
1:15 AM,18.5,2.3,49,29.95,10.0,Calm,Calm,-,N/A,,Clear,0,2012-12-11 07:15:00
1:35 AM,17.6,5.0,58,29.95,10.0,Calm,Calm,-,N/A,,Scattered Clouds,0,2012-12-11 07:35:00
1:55 AM,19.8,5.9,55,29.96,10.0,Calm,Calm,-,N/A,,Overcast,0,2012-12-11 07:55:00
2:15 AM,21.0,7.7,56,29.96,10.0,Calm,Calm,-,N/A,,Overcast,0,2012-12-11 08:15:00
2:35 AM,23.2,8.8,54,29.96,10.0,West,4.6,-,N/A,,Overcast,280,2012-12-11 08:35:00
2:55 AM,25.7,7.5,46,29.96,10.0,West,4.6,-,N/A,,Overcast,280,2012-12-11 08:55:00
3:15 AM,24.4,7.7,49,29.96,10.0,WNW,3.5,-,N/A,,Scattered Clouds,300,2012-12-11 09:15:00
3:35 AM,23.9,7.7,50,29.96,10.0,West,8.1,-,N/A,,Scattered Clouds,280,2012-12-11 09:35:00
3:55 AM,24.8,8.4,50,29.97,10.0,West,6.9,-,N/A,,Scattered Clouds,280,2012-12-11 09:55:00
4:15 AM,24.4,9.0,52,29.97,10.0,West,8.1,-,N/A,,Scattered Clouds,270,2012-12-11 10:15:00
4:35 AM,24.3,10.0,55,29.98,10.0,West,6.9,-,N/A,,Mostly Cloudy,280,2012-12-11 10:35:00
4:55 AM,25.7,12.0,56,29.98,10.0,West,6.9,-,N/A,,Overcast,280,2012-12-11 10:55:00
5:15 AM,27.5,13.1,55,29.98,10.0,WNW,8.1,-,N/A,,Overcast,290,2012-12-11 11:15:00
5:35 AM,27.3,13.8,57,29.99,10.0,WNW,8.1,-,N/A,,Overcast,290,2012-12-11 11:35:00
5:55 AM,27.3,14.0,57,30.00,10.0,NW,4.6,-,N/A,,Overcast,310,2012-12-11 11:55:00
6:15 AM,25.3,13.6,61,30.00,10.0,NW,5.8,-,N/A,,Mostly Cloudy,310,2012-12-11 12:15:00
6:35 AM,22.8,13.1,66,30.01,10.0,WNW,3.5,-,N/A,,Scattered Clouds,300,2012-12-11 12:35:00
6:55 AM,20.5,11.8,69,30.02,10.0,WSW,3.5,-,N/A,,Clear,250,2012-12-11 12:55:00
7:15 AM,19.4,11.5,71,30.03,10.0,WSW,4.6,-,N/A,,Clear,250,2012-12-11 13:15:00
7:35 AM,20.7,12.2,70,30.03,10.0,West,3.5,-,N/A,,Clear,260,2012-12-11 13:35:00
7:55 AM,19.6,11.1,70,30.03,10.0,Calm,Calm,-,N/A,,Clear,0,2012-12-11 13:55:00
8:15 AM,20.1,11.3,69,30.03,10.0,SSW,3.5,-,N/A,,Clear,200,2012-12-11 14:15:00
8:35 AM,23.7,15.8,72,30.03,10.0,SW,5.8,-,N/A,,Clear,230,2012-12-11 14:35:00
8:55 AM,26.4,15.6,64,30.04,10.0,West,4.6,-,N/A,,Clear,270,2012-12-11 14:55:00
9:15 AM,28.4,16.5,61,30.04,10.0,West,6.9,-,N/A,,Clear,260,2012-12-11 15:15:00
9:35 AM,30.9,17.6,58,30.04,10.0,West,6.9,-,N/A,,Clear,270,2012-12-11 15:35:00
9:55 AM,32.9,18.7,56,30.04,10.0,West,9.2,-,N/A,,Clear,270,2012-12-11 15:55:00
10:15 AM,35.6,19.2,51,30.04,10.0,West,9.2,-,N/A,,Clear,260,2012-12-11 16:15:00
10:35 AM,38.3,19.2,46,30.05,10.0,West,12.7,-,N/A,,Clear,260,2012-12-11 16:35:00
10:55 AM,40.1,17.6,40,30.04,10.0,West,15.0,-,N/A,,Clear,260,2012-12-11 16:55:00
11:15 AM,41.5,15.8,35,30.04,10.0,WSW,13.8,-,N/A,,Clear,250,2012-12-11 17:15:00
11:35 AM,41.9,13.5,32,30.03,10.0,WSW,11.5,-,N/A,,Clear,250,2012-12-11 17:35:00
11:55 AM,42.3,11.8,29,30.03,10.0,West,11.5,-,N/A,,Clear,270,2012-12-11 17:55:00
12:15 PM,43.7,12.4,28,30.02,10.0,WSW,12.7,-,N/A,,Clear,240,2012-12-11 18:15:00
12:35 PM,43.9,12.7,28,30.01,10.0,WSW,15.0,21.9,N/A,,Clear,240,2012-12-11 18:35:00
12:55 PM,44.8,13.5,28,30.01,10.0,WSW,15.0,-,N/A,,Clear,240,2012-12-11 18:55:00
1:15 PM,44.8,13.3,28,30.00,10.0,WSW,16.1,24.2,N/A,,Clear,240,2012-12-11 19:15:00
1:35 PM,45.3,12.7,27,30.00,10.0,West,17.3,21.9,N/A,,Clear,270,2012-12-11 19:35:00
1:55 PM,46.0,12.7,26,29.99,10.0,West,17.3,-,N/A,,Clear,260,2012-12-11 19:55:00
2:15 PM,45.7,12.6,26,29.99,10.0,WSW,17.3,20.7,N/A,,Clear,240,2012-12-11 20:15:00
2:35 PM,45.7,12.9,27,29.98,10.0,WSW,16.1,-,N/A,,Clear,240,2012-12-11 20:35:00
2:55 PM,45.9,13.1,27,29.98,10.0,West,15.0,19.6,N/A,,Clear,270,2012-12-11 20:55:00
3:15 PM,46.0,12.2,26,29.97,10.0,West,16.1,23.0,N/A,,Clear,260,2012-12-11 21:15:00
3:35 PM,45.7,12.2,26,29.97,10.0,WSW,12.7,17.3,N/A,,Clear,240,2012-12-11 21:35:00
3:55 PM,45.5,12.4,26,29.97,10.0,WSW,13.8,-,N/A,,Clear,250,2012-12-11 21:55:00
4:15 PM,44.8,12.6,27,29.98,10.0,WSW,10.4,-,N/A,,Clear,250,2012-12-11 22:15:00
4:35 PM,43.3,12.6,29,29.98,10.0,WSW,9.2,-,N/A,,Clear,240,2012-12-11 22:35:00
4:55 PM,41.0,12.4,31,29.98,10.0,SW,9.2,-,N/A,,Clear,230,2012-12-11 22:55:00
5:15 PM,38.8,12.7,34,29.98,10.0,SW,9.2,-,N/A,,Clear,230,2012-12-11 23:15:00
5:35 PM,37.2,12.9,37,29.99,10.0,SSW,8.1,-,N/A,,Clear,210,2012-12-11 23:35:00
5:55 PM,35.6,13.1,40,29.99,10.0,SSW,5.8,-,N/A,,Clear,210,2012-12-11 23:55:00
6:15 PM,34.0,14.0,44,30.00,10.0,SSW,6.9,-,N/A,,Clear,210,2012-12-12 00:15:00
6:35 PM,34.2,14.2,44,30.00,10.0,SSW,8.1,-,N/A,,Clear,210,2012-12-12 00:35:00
6:55 PM,32.7,14.5,47,30.00,10.0,SSW,6.9,-,N/A,,Clear,200,2012-12-12 00:55:00
7:15 PM,32.0,14.0,48,30.01,10.0,South,8.1,-,N/A,,Clear,190,2012-12-12 01:15:00
7:35 PM,33.1,14.4,46,30.01,10.0,SSW,9.2,-,N/A,,Clear,200,2012-12-12 01:35:00
7:55 PM,33.4,14.4,46,30.01,10.0,SSW,10.4,-,N/A,,Clear,200,2012-12-12 01:55:00
8:15 PM,33.8,14.4,45,30.02,10.0,South,9.2,-,N/A,,Clear,190,2012-12-12 02:15:00
8:35 PM,32.0,14.5,49,30.02,10.0,South,9.2,-,N/A,,Clear,190,2012-12-12 02:35:00
8:55 PM,32.0,14.9,49,30.02,10.0,South,9.2,-,N/A,,Clear,180,2012-12-12 02:55:00
9:15 PM,32.0,15.1,50,30.02,10.0,South,9.2,-,N/A,,Clear,190,2012-12-12 03:15:00
9:35 PM,32.2,15.4,50,30.02,10.0,South,9.2,-,N/A,,Clear,190,2012-12-12 03:35:00
9:55 PM,32.0,15.3,50,30.02,10.0,South,11.5,-,N/A,,Clear,190,2012-12-12 03:55:00
10:15 PM,32.0,14.9,49,30.01,10.0,South,9.2,-,N/A,,Clear,190,2012-12-12 04:15:00
10:35 PM,31.3,14.9,51,30.02,10.0,South,8.1,-,N/A,,Clear,190,2012-12-12 04:35:00
10:55 PM,30.7,14.9,52,30.02,10.0,South,9.2,-,N/A,,Clear,180,2012-12-12 04:55:00
11:15 PM,30.7,14.9,52,30.02,10.0,South,8.1,-,N/A,,Clear,190,2012-12-12 05:15:00
11:35 PM,31.1,14.9,51,30.02,10.0,South,8.1,-,N/A,,Clear,180,2012-12-12 05:35:00
11:55 PM,30.2,14.9,53,30.02,10.0,South,9.2,-,N/A,,Clear,190,2012-12-12 05:55:00